Location: Unspecified
(41.1637°N, 24.2901°E)
Time: 13:09:21
(UTC+01:00)

ISS - Pass Details

Date: 04 December 2021
Orbit: 417 x 423 km, 51.6° (Epoch: 29 November)

Event Time Altitude Azimuth Distance (km) Brightness Sun altitude
Rises 18:01:10 0° 306° (NW) 2,379 0.7 -23.2°
Reaches altitude 10° 18:03:17 10° 307° (NW) 1,511 -0.4 -23.6°
Enters shadow 18:05:08 30° 311° (NW) 792 -2.1 -24.0°
